| time (UTC) | temp F | wind direction | speed MPH | gust MPH | rain 1hr in | rain 24hr in | rain mn in | humidity % | barometer mb |
| 20260906152756 | 72 | 184 | 1.0 | 1.0 | 0.00 | 0.00 | 0.00 | 92 | 1024.3 |
| 20260906152251 | 72 | 217 | 0.0 | 0.0 | 0.00 | 0.00 | 0.00 | 92 | 1024.3 |
| 20260906151750 | 72 | 219 | 0.0 | 0.0 | 0.00 | 0.00 | 0.00 | 93 | 1024.3 |
| 20260906151246 | 72 | 219 | 1.0 | 1.0 | 0.00 | 0.00 | 0.00 | 93 | 1024.1 |
| 20260906150741 | 72 | 240 | 0.0 | 0.0 | 0.00 | 0.00 | 0.00 | 93 | 1024.2 |
| 20260906150237 | 72 | 228 | 0.0 | 1.0 | 0.00 | 0.00 | 0.00 | 92 | 1023.9 |
| 20260906145736 | 72 | 274 | 0.0 | 0.0 | 0.00 | 0.00 | 0.00 | 93 | 1024.0 |
| 20260906145234 | 72 | 230 | 0.0 | 0.0 | 0.00 | 0.00 | 0.00 | 93 | 1024.1 |
| 20260906144730 | 72 | 228 | 0.0 | 0.0 | 0.00 | 0.00 | 0.00 | 93 | 1024.0 |
| 20260906144224 | 72 | 247 | 0.0 | 0.0 | 0.00 | 0.00 | 0.00 | 93 | 1024.0 |
| 20260906143724 | 71 | 234 | 0.0 | 0.0 | 0.00 | 0.00 | 0.00 | 93 | 1024.0 |
| 20260906143221 | 71 | 228 | 0.0 | 0.0 | 0.00 | 0.00 | 0.00 | 93 | 1024.1 |
| 20260906142720 | 71 | 176 | 0.0 | 1.0 | 0.00 | 0.00 | 0.00 | 93 | 1024.0 |
| 20260906142216 | 71 | 231 | 0.0 | 1.0 | 0.00 | 0.00 | 0.00 | 94 | 1023.9 |
| 20260906141714 | 71 | 234 | 0.0 | 0.0 | 0.00 | 0.00 | 0.00 | 94 | 1024.0 |
| 20260906141210 | 71 | 223 | 0.0 | 0.0 | 0.00 | 0.00 | 0.00 | 94 | 1023.8 |
| 20260906140709 | 71 | 228 | 0.0 | 0.0 | 0.00 | 0.00 | 0.00 | 95 | 1023.8 |
| 20260906140204 | 70 | 224 | 0.0 | 0.0 | 0.00 | 0.00 | 0.00 | 95 | 1023.9 |
| 20260906135701 | 70 | 213 | 0.0 | 0.0 | 0.00 | 0.00 | 0.00 | 95 | 1023.9 |
| 20260906135157 | 70 | 279 | 0.0 | 0.0 | 0.00 | 0.00 | 0.00 | 95 | 1024.1 |
| 20260906134653 | 70 | 156 | 1.0 | 1.0 | 0.00 | 0.00 | 0.00 | 95 | 1023.8 |
| 20260906134153 | 70 | 216 | 0.0 | 0.0 | 0.00 | 0.00 | 0.00 | 95 | 1023.7 |
| 20260906133648 | 70 | 218 | 0.0 | 0.0 | 0.00 | 0.00 | 0.00 | 96 | 1023.7 |
| 20260906133143 | 70 | 230 | 0.0 | 0.0 | 0.00 | 0.00 | 0.00 | 96 | 1023.7 |
| 20260906132639 | 69 | 212 | 0.0 | 0.0 | 0.00 | 0.00 | 0.00 | 97 | 1023.6 |
| 20260906132134 | 69 | 101 | 1.0 | 2.0 | 0.00 | 0.00 | 0.00 | 97 | 1023.6 |
| 20260906131630 | 69 | 228 | 0.0 | 0.0 | 0.00 | 0.00 | 0.00 | 97 | 1023.4 |
| 20260906131125 | 69 | 142 | 0.0 | 0.0 | 0.00 | 0.00 | 0.00 | 98 | 1023.7 |
| 20260906130620 | 68 | 244 | 0.0 | 0.0 | 0.00 | 0.00 | 0.00 | 98 | 1023.7 |
| 20260906130115 | 68 | 95 | 0.0 | 0.0 | 0.00 | 0.00 | 0.00 | 98 | 1023.3 |
| 20260906125613 | 68 | 222 | 0.0 | 0.0 | 0.00 | 0.00 | 0.00 | 99 | 1023.1 |
| 20260906125112 | 68 | 230 | 0.0 | 0.0 | 0.00 | 0.00 | 0.00 | 99 | 1023.3 |
| 20260906124608 | 68 | 227 | 0.0 | 0.0 | 0.00 | 0.00 | 0.00 | 99 | 1023.3 |
| 20260906124102 | 68 | 219 | 0.0 | 0.0 | 0.00 | 0.00 | 0.00 | 99 | 1023.1 |
| 20260906123601 | 68 | 233 | 0.0 | 0.0 | 0.00 | 0.00 | 0.00 | 99 | 1023.0 |
| 20260906123057 | 68 | 229 | 0.0 | 0.0 | 0.00 | 0.00 | 0.00 | 99 | 1023.0 |
| 20260906122556 | 68 | 306 | 0.0 | 0.0 | 0.00 | 0.00 | 0.00 | 99 | 1023.3 |
| 20260906122052 | 67 | 235 | 0.0 | 0.0 | 0.00 | 0.00 | 0.00 | 99 | 1022.8 |
| 20260906121548 | 67 | 230 | 0.0 | 0.0 | 0.00 | 0.00 | 0.00 | 99 | 1023.0 |
| 20260906121044 | 67 | 231 | 0.0 | 0.0 | 0.00 | 0.00 | 0.00 | 99 | 1022.9 |
| 20260906120539 | 67 | 231 | 0.0 | 0.0 | 0.00 | 0.00 | 0.00 | 99 | 1023.0 |
| 20260906120037 | 68 | 222 | 0.0 | 0.0 | 0.00 | 0.00 | 0.00 | 99 | 1023.1 |
| 20260906115536 | 68 | 237 | 0.0 | 0.0 | 0.00 | 0.00 | 0.00 | 99 | 1022.7 |
| 20260906115031 | 68 | 233 | 0.0 | 0.0 | 0.00 | 0.00 | 0.00 | 99 | 1022.9 |
| 20260906114526 | 68 | 214 | 0.0 | 0.0 | 0.00 | 0.00 | 0.00 | 99 | 1022.5 |
| 20260906114022 | 68 | 234 | 0.0 | 0.0 | 0.00 | 0.00 | 0.00 | 99 | 1022.7 |
| 20260906113520 | 68 | 231 | 0.0 | 0.0 | 0.00 | 0.00 | 0.00 | 99 | 1022.7 |
| 20260906113016 | 68 | 230 | 0.0 | 0.0 | 0.00 | 0.00 | 0.00 | 99 | 1022.6 |
| 20260906112510 | 68 | 248 | 0.0 | 0.0 | 0.00 | 0.00 | 0.00 | 99 | 1022.6 |
| 20260906112007 | 68 | 242 | 0.0 | 0.0 | 0.00 | 0.00 | 0.00 | 99 | 1022.7 |
| 20260906111506 | 68 | 235 | 0.0 | 0.0 | 0.00 | 0.00 | 0.00 | 99 | 1022.6 |
| 20260906111001 | 68 | 234 | 0.0 | 0.0 | 0.00 | 0.00 | 0.00 | 99 | 1022.6 |
| 20260906110456 | 68 | 234 | 0.0 | 0.0 | 0.00 | 0.00 | 0.00 | 99 | 1022.6 |
| 20260906105955 | 68 | 235 | 0.0 | 0.0 | 0.00 | 0.00 | 0.00 | 99 | 1022.6 |
| 20260906105451 | 68 | 234 | 0.0 | 0.0 | 0.00 | 0.00 | 0.00 | 99 | 1022.5 |
| 20260906104947 | 68 | 205 | 0.0 | 0.0 | 0.00 | 0.00 | 0.00 | 99 | 1022.3 |
| 20260906104445 | 68 | 234 | 0.0 | 0.0 | 0.00 | 0.00 | 0.00 | 98 | 1022.3 |
| 20260906103945 | 68 | 234 | 0.0 | 0.0 | 0.00 | 0.00 | 0.00 | 98 | 1022.3 |
| 20260906103443 | 68 | 234 | 0.0 | 0.0 | 0.00 | 0.00 | 0.00 | 98 | 1022.2 |
| 20260906102938 | 68 | 228 | 0.0 | 0.0 | 0.00 | 0.00 | 0.00 | 98 | 1022.3 |
| 20260906102433 | 69 | 233 | 0.0 | 0.0 | 0.00 | 0.00 | 0.00 | 98 | 1022.1 |
| 20260906101933 | 69 | 227 | 0.0 | 0.0 | 0.00 | 0.00 | 0.00 | 98 | 1022.2 |
| 20260906101428 | 69 | 223 | 0.0 | 0.0 | 0.00 | 0.00 | 0.00 | 98 | 1021.8 |
| 20260906100924 | 69 | 223 | 0.0 | 0.0 | 0.00 | 0.00 | 0.00 | 98 | 1022.2 |
| 20260906100423 | 69 | 234 | 0.0 | 0.0 | 0.00 | 0.00 | 0.00 | 98 | 1022.0 |
| 20260906095918 | 69 | 224 | 0.0 | 0.0 | 0.00 | 0.00 | 0.00 | 98 | 1022.0 |
| 20260906095414 | 69 | 234 | 0.0 | 0.0 | 0.00 | 0.00 | 0.00 | 98 | 1021.8 |
| 20260906094908 | 69 | 218 | 0.0 | 0.0 | 0.00 | 0.00 | 0.00 | 98 | 1021.7 |
| 20260906094403 | 69 | 218 | 0.0 | 0.0 | 0.00 | 0.00 | 0.00 | 98 | 1021.8 |
| 20260906093853 | 69 | 229 | 0.0 | 0.0 | 0.00 | 0.00 | 0.00 | 98 | 1021.5 |
| 20260906093349 | 69 | 190 | 0.0 | 0.0 | 0.00 | 0.00 | 0.00 | 98 | 1021.6 |
| 20260906092843 | 69 | 226 | 0.0 | 0.0 | 0.00 | 0.00 | 0.00 | 98 | 1021.4 |
| 20260906092343 | 69 | 160 | 0.0 | 0.0 | 0.00 | 0.00 | 0.00 | 98 | 1021.4 |
| 20260906091839 | 69 | 232 | 0.0 | 0.0 | 0.00 | 0.00 | 0.00 | 98 | 1021.5 |
| 20260906091335 | 70 | 210 | 0.0 | 0.0 | 0.00 | 0.00 | 0.00 | 97 | 1021.2 |
| 20260906090831 | 70 | 174 | 0.0 | 0.0 | 0.00 | 0.00 | 0.00 | 97 | 1021.3 |
| 20260906090330 | 70 | 218 | 0.0 | 0.0 | 0.00 | 0.00 | 0.00 | 97 | 1021.3 |
| 20260906085824 | 70 | 193 | 0.0 | 1.0 | 0.00 | 0.00 | 0.00 | 97 | 1021.3 |
| 20260906085323 | 70 | 210 | 0.0 | 0.0 | 0.00 | 0.00 | 0.00 | 97 | 1021.4 |
| 20260906084818 | 70 | 189 | 0.0 | 1.0 | 0.00 | 0.00 | 0.00 | 97 | 1021.4 |
| 20260906084318 | 71 | 207 | 0.0 | 0.0 | 0.00 | 0.00 | 0.00 | 97 | 1021.5 |
| 20260906083807 | 71 | 175 | 0.0 | 0.0 | 0.00 | 0.00 | 0.00 | 97 | 1021.4 |
| 20260906083303 | 71 | 107 | 1.0 | 1.0 | 0.00 | 0.00 | 0.00 | 97 | 1021.4 |
| 20260906082757 | 71 | 193 | 0.0 | 1.0 | 0.00 | 0.00 | 0.00 | 97 | 1021.4 |
| 20260906082252 | 71 | 222 | 0.0 | 0.0 | 0.00 | 0.00 | 0.00 | 97 | 1021.3 |
| 20260906081748 | 71 | 217 | 0.0 | 0.0 | 0.00 | 0.00 | 0.00 | 97 | 1021.4 |
| 20260906081244 | 71 | 164 | 1.0 | 1.0 | 0.00 | 0.00 | 0.00 | 98 | 1021.6 |
| 20260906080740 | 71 | 210 | 0.0 | 0.0 | 0.00 | 0.00 | 0.00 | 98 | 1021.4 |
| 20260906080236 | 71 | 197 | 0.0 | 0.0 | 0.00 | 0.00 | 0.00 | 98 | 1021.3 |
| 20260906075730 | 71 | 222 | 0.0 | 0.0 | 0.00 | 0.00 | 0.00 | 98 | 1021.5 |
| 20260906075229 | 71 | 181 | 0.0 | 0.0 | 0.00 | 0.00 | 0.00 | 98 | 1021.7 |
| 20260906074725 | 71 | 97 | 0.0 | 0.0 | 0.00 | 0.00 | 0.00 | 97 | 1021.3 |
| 20260906074224 | 71 | 97 | 0.0 | 0.0 | 0.00 | 0.00 | 0.00 | 97 | 1021.7 |
| 20260906073724 | 71 | 213 | 0.0 | 0.0 | 0.00 | 0.00 | 0.00 | 97 | 1021.4 |
| 20260906073219 | 72 | 229 | 0.0 | 0.0 | 0.00 | 0.00 | 0.00 | 97 | 1021.6 |
| 20260906072715 | 72 | 97 | 0.0 | 1.0 | 0.00 | 0.00 | 0.00 | 97 | 1021.6 |
| 20260906072211 | 72 | 224 | 0.0 | 0.0 | 0.00 | 0.00 | 0.00 | 96 | 1021.8 |
| 20260906071706 | 72 | 185 | 0.0 | 0.0 | 0.00 | 0.00 | 0.00 | 96 | 1021.7 |
| 20260906071201 | 72 | 341 | 0.0 | 0.0 | 0.00 | 0.00 | 0.00 | 96 | 1021.8 |
| 20260906070658 | 72 | 232 | 0.0 | 0.0 | 0.00 | 0.00 | 0.00 | 96 | 1021.5 |
| 20260906070153 | 72 | 222 | 0.0 | 0.0 | 0.00 | 0.00 | 0.00 | 96 | 1021.9 |
| 20260906065652 | 72 | 200 | 0.0 | 0.0 | 0.00 | 0.00 | 0.00 | 96 | 1021.9 |
| 20260906065148 | 72 | 182 | 0.0 | 0.0 | 0.00 | 0.00 | 0.00 | 96 | 1021.9 |
| 20260906064643 | 73 | 215 | 0.0 | 0.0 | 0.00 | 0.00 | 0.00 | 95 | 1021.6 |
| 20260906064139 | 73 | 220 | 0.0 | 0.0 | 0.00 | 0.00 | 0.00 | 95 | 1021.8 |
| 20260906063639 | 73 | 192 | 0.0 | 0.0 | 0.00 | 0.00 | 0.00 | 95 | 1022.0 |
| 20260906063135 | 73 | 224 | 0.0 | 0.0 | 0.00 | 0.00 | 0.00 | 95 | 1021.7 |
| 20260906062630 | 73 | 221 | 0.0 | 0.0 | 0.00 | 0.00 | 0.00 | 95 | 1022.0 |
| 20260906062129 | 73 | 223 | 0.0 | 0.0 | 0.00 | 0.00 | 0.00 | 95 | 1021.9 |
| 20260906061625 | 73 | 231 | 0.0 | 0.0 | 0.00 | 0.00 | 0.00 | 95 | 1022.0 |
| 20260906061125 | 73 | 226 | 0.0 | 0.0 | 0.00 | 0.00 | 0.00 | 95 | 1021.9 |
| 20260906060622 | 73 | 215 | 0.0 | 0.0 | 0.00 | 0.00 | 0.00 | 94 | 1021.7 |
| 20260906060119 | 73 | 216 | 0.0 | 0.0 | 0.00 | 0.00 | 0.00 | 94 | 1021.8 |
| 20260906055614 | 73 | 225 | 0.0 | 0.0 | 0.00 | 0.00 | 0.00 | 94 | 1021.7 |
| 20260906055109 | 73 | 143 | 0.0 | 0.0 | 0.00 | 0.00 | 0.00 | 94 | 1021.8 |
| 20260906054604 | 73 | 235 | 0.0 | 0.0 | 0.00 | 0.00 | 0.00 | 94 | 1021.6 |
| 20260906054059 | 74 | 221 | 0.0 | 0.0 | 0.00 | 0.00 | 0.00 | 93 | 1021.5 |
| 20260906053556 | 74 | 234 | 0.0 | 0.0 | 0.00 | 0.00 | 0.00 | 93 | 1021.4 |
| 20260906053051 | 74 | 215 | 0.0 | 0.0 | 0.00 | 0.00 | 0.00 | 93 | 1021.6 |
| 20260906052546 | 74 | 60 | 0.0 | 1.0 | 0.00 | 0.00 | 0.00 | 93 | 1021.5 |
| 20260906052043 | 74 | 136 | 0.0 | 1.0 | 0.00 | 0.00 | 0.00 | 93 | 1021.5 |
| 20260906051539 | 74 | 58 | 1.0 | 2.0 | 0.00 | 0.00 | 0.00 | 93 | 1021.6 |
| 20260906051034 | 74 | 106 | 1.0 | 1.0 | 0.00 | 0.00 | 0.00 | 93 | 1021.3 |
| 20260906050529 | 74 | 328 | 0.0 | 1.0 | 0.00 | 0.00 | 0.00 | 93 | 1021.5 |
| 20260906050024 | 74 | 272 | 0.0 | 0.0 | 0.00 | 0.00 | 0.00 | 93 | 1021.4 |
| 20260906045522 | 74 | 199 | 0.0 | 0.0 | 0.00 | 0.00 | 0.00 | 93 | 1021.4 |
| 20260906045018 | 74 | 120 | 0.0 | 1.0 | 0.00 | 0.00 | 0.00 | 93 | 1021.4 |
| 20260906044513 | 75 | 283 | 0.0 | 0.0 | 0.00 | 0.00 | 0.00 | 93 | 1021.5 |
| 20260906044009 | 75 | 164 | 0.0 | 1.0 | 0.00 | 0.00 | 0.00 | 92 | 1021.4 |
| 20260906043504 | 75 | 66 | 1.0 | 1.0 | 0.00 | 0.00 | 0.00 | 92 | 1021.4 |
| 20260906042955 | 75 | 108 | 0.0 | 0.0 | 0.00 | 0.00 | 0.00 | 92 | 1021.6 |
| 20260906042453 | 75 | 344 | 0.0 | 1.0 | 0.00 | 0.00 | 0.00 | 92 | 1021.4 |
| 20260906041947 | 75 | 357 | 0.0 | 1.0 | 0.00 | 0.00 | 0.00 | 92 | 1021.4 |
| 20260906041444 | 75 | 246 | 0.0 | 0.0 | 0.00 | 0.00 | 0.00 | 92 | 1021.3 |
| 20260906040943 | 75 | 238 | 0.0 | 0.0 | 0.00 | 0.00 | 0.00 | 92 | 1021.2 |
| 20260906040438 | 75 | 243 | 0.0 | 0.0 | 0.00 | 0.00 | 0.00 | 92 | 1021.1 |
| 20260906035934 | 75 | 237 | 0.0 | 0.0 | 0.00 | 0.00 | 0.00 | 92 | 1021.0 |
| 20260906035429 | 75 | 240 | 0.0 | 0.0 | 0.00 | 0.00 | 0.00 | 92 | 1021.2 |
| 20260906034925 | 75 | 260 | 0.0 | 0.0 | 0.00 | 0.00 | 0.00 | 92 | 1021.2 |
| 20260906034425 | 75 | 95 | 1.0 | 1.0 | 0.00 | 0.00 | 0.00 | 92 | 1021.3 |
| 20260906033921 | 75 | 62 | 0.0 | 0.0 | 0.00 | 0.00 | 0.00 | 92 | 1021.1 |
| 20260906033420 | 75 | 79 | 0.0 | 1.0 | 0.00 | 0.00 | 0.00 | 92 | 1020.7 |
| 20260906032916 | 75 | 216 | 0.0 | 0.0 | 0.00 | 0.00 | 0.00 | 92 | 1021.0 |
| 20260906032413 | 75 | 342 | 0.0 | 0.0 | 0.00 | 0.00 | 0.00 | 92 | 1020.9 |
| 20260906031907 | 75 | 125 | 0.0 | 0.0 | 0.00 | 0.00 | 0.00 | 92 | 1020.9 |
| 20260906031402 | 75 | 124 | 0.0 | 1.0 | 0.00 | 0.00 | 0.00 | 92 | 1020.9 |
| 20260906030857 | 75 | 178 | 0.0 | 1.0 | 0.00 | 0.00 | 0.00 | 92 | 1020.9 |
| 20260906030352 | 75 | 74 | 0.0 | 1.0 | 0.00 | 0.00 | 0.00 | 92 | 1021.1 |
| 20260906025846 | 75 | 76 | 2.0 | 3.0 | 0.00 | 0.00 | 0.00 | 92 | 1021.1 |
| 20260906025340 | 76 | 162 | 1.0 | 2.0 | 0.00 | 0.00 | 0.00 | 92 | 1021.0 |
| 20260906024839 | 76 | 45 | 1.0 | 2.0 | 0.00 | 0.00 | 0.00 | 92 | 1020.8 |
| 20260906024339 | 76 | 222 | 0.0 | 0.0 | 0.00 | 0.00 | 0.00 | 92 | 1020.8 |
| 20260906023834 | 76 | 175 | 0.0 | 0.0 | 0.00 | 0.00 | 0.00 | 92 | 1020.5 |
| 20260906023330 | 76 | 162 | 0.0 | 0.0 | 0.00 | 0.00 | 0.00 | 92 | 1020.6 |
| 20260906022825 | 76 | 243 | 0.0 | 0.0 | 0.00 | 0.00 | 0.00 | 92 | 1020.6 |
| 20260906022320 | 76 | 87 | 1.0 | 2.0 | 0.00 | 0.00 | 0.00 | 92 | 1020.2 |
| 20260906021816 | 77 | 80 | 0.0 | 1.0 | 0.00 | 0.00 | 0.00 | 92 | 1020.7 |
| 20260906021315 | 77 | 219 | 0.0 | 0.0 | 0.00 | 0.00 | 0.00 | 91 | 1020.3 |
| 20260906020810 | 77 | 94 | 1.0 | 1.0 | 0.00 | 0.00 | 0.00 | 91 | 1020.3 |
| 20260906020309 | 77 | 219 | 0.0 | 0.0 | 0.00 | 0.00 | 0.00 | 91 | 1020.0 |
| 20260906015804 | 77 | 228 | 0.0 | 0.0 | 0.00 | 0.00 | 0.00 | 91 | 1020.3 |
| 20260906015305 | 77 | 235 | 0.0 | 0.0 | 0.00 | 0.00 | 0.00 | 91 | 1019.9 |
| 20260906014757 | 77 | 222 | 0.0 | 0.0 | 0.00 | 0.00 | 0.00 | 91 | 1019.9 |
| 20260906014253 | 77 | 232 | 0.0 | 0.0 | 0.00 | 0.00 | 0.00 | 90 | 1019.9 |
| 20260906013749 | 77 | 227 | 0.0 | 0.0 | 0.00 | 0.00 | 0.00 | 90 | 1019.5 |
| 20260906013249 | 78 | 218 | 0.0 | 0.0 | 0.00 | 0.00 | 0.00 | 90 | 1019.8 |
| 20260906012744 | 78 | 266 | 0.0 | 0.0 | 0.00 | 0.00 | 0.00 | 90 | 1019.9 |
| 20260906012239 | 78 | 279 | 0.0 | 0.0 | 0.00 | 0.00 | 0.00 | 89 | 1019.6 |
| 20260906011735 | 78 | 168 | 0.0 | 0.0 | 0.00 | 0.00 | 0.00 | 89 | 1019.8 |
| 20260906011235 | 78 | 224 | 0.0 | 0.0 | 0.00 | 0.00 | 0.00 | 89 | 1019.6 |
| 20260906010730 | 78 | 205 | 0.0 | 0.0 | 0.00 | 0.00 | 0.00 | 88 | 1019.5 |
| 20260906010227 | 78 | 224 | 0.0 | 0.0 | 0.00 | 0.00 | 0.00 | 88 | 1019.5 |
| 20260906005721 | 78 | 235 | 0.0 | 0.0 | 0.00 | 0.00 | 0.00 | 88 | 1019.6 |
| 20260906005220 | 78 | 231 | 0.0 | 0.0 | 0.00 | 0.00 | 0.00 | 88 | 1019.5 |
| 20260906004719 | 78 | 318 | 0.0 | 0.0 | 0.00 | 0.00 | 0.00 | 88 | 1019.8 |
| 20260906004214 | 79 | 237 | 0.0 | 0.0 | 0.00 | 0.00 | 0.00 | 87 | 1019.6 |
| 20260906003709 | 79 | 232 | 0.0 | 0.0 | 0.00 | 0.00 | 0.00 | 87 | 1019.8 |
| 20260906003205 | 79 | 236 | 0.0 | 0.0 | 0.00 | 0.00 | 0.00 | 87 | 1019.5 |
| 20260906002659 | 79 | 232 | 0.0 | 0.0 | 0.00 | 0.00 | 0.00 | 87 | 1019.1 |
| 20260906002155 | 79 | 243 | 0.0 | 0.0 | 0.00 | 0.00 | 0.00 | 86 | 1019.4 |
| 20260906001650 | 80 | 207 | 0.0 | 0.0 | 0.00 | 0.00 | 0.00 | 86 | 1019.5 |
| 20260906001149 | 80 | 236 | 0.0 | 0.0 | 0.00 | 0.00 | 0.00 | 86 | 1019.5 |
| 20260906000645 | 80 | 215 | 0.0 | 0.0 | 0.00 | 0.00 | 0.00 | 85 | 1019.5 |
| 20260906000140 | 80 | 171 | 0.0 | 0.0 | 0.00 | 0.00 | 0.00 | 85 | 1019.4 |
| 20260905235639 | 80 | 133 | 1.0 | 1.0 | 0.00 | 0.00 | 0.00 | 85 | 1019.4 |
| 20260905235134 | 81 | 68 | 2.0 | 2.0 | 0.00 | 0.00 | 0.00 | 85 | 1019.4 |
| 20260905234629 | 81 | 236 | 0.0 | 0.0 | 0.00 | 0.00 | 0.00 | 85 | 1019.3 |
| 20260905234126 | 81 | 242 | 0.0 | 0.0 | 0.00 | 0.00 | 0.00 | 84 | 1019.3 |
| 20260905233626 | 81 | 197 | 0.0 | 0.0 | 0.00 | 0.00 | 0.00 | 84 | 1019.2 |
| 20260905233120 | 82 | 298 | 0.0 | 0.0 | 0.00 | 0.00 | 0.00 | 83 | 1019.1 |
| 20260905232615 | 82 | 222 | 0.0 | 0.0 | 0.00 | 0.00 | 0.00 | 83 | 1019.1 |
| 20260905232111 | 82 | 66 | 3.0 | 6.0 | 0.00 | 0.00 | 0.00 | 83 | 1019.1 |
| 20260905231606 | 83 | 81 | 1.0 | 1.0 | 0.00 | 0.00 | 0.00 | 82 | 1019.3 |
| 20260905231102 | 84 | 82 | 1.0 | 3.0 | 0.00 | 0.00 | 0.00 | 82 | 1019.0 |
| 20260905230602 | 84 | 186 | 0.0 | 1.0 | 0.00 | 0.00 | 0.00 | 81 | 1019.2 |
| 20260905225555 | 85 | 134 | 0.0 | 0.0 | 0.00 | 0.00 | 0.00 | 81 | 1019.2 |
| 20260905225050 | 86 | 242 | 0.0 | 1.0 | 0.00 | 0.00 | 0.00 | 81 | 1019.0 |
| 20260905224549 | 86 | 305 | 0.0 | 1.0 | 0.00 | 0.00 | 0.00 | 81 | 1019.0 |
| 20260905224049 | 85 | 65 | 2.0 | 2.0 | 0.00 | 0.00 | 0.00 | 82 | 1018.9 |
| 20260905223547 | 85 | 50 | 3.0 | 5.0 | 0.00 | 0.00 | 0.00 | 81 | 1018.9 |
| 20260905223042 | 85 | 68 | 2.0 | 3.0 | 0.00 | 0.00 | 0.00 | 81 | 1018.9 |
| 20260905222543 | 86 | 7 | 2.0 | 3.0 | 0.00 | 0.00 | 0.00 | 81 | 1018.8 |
| 20260905222038 | 86 | 40 | 4.0 | 6.0 | 0.00 | 0.00 | 0.00 | 81 | 1018.7 |
| 20260905221534 | 86 | 60 | 3.0 | 5.0 | 0.00 | 0.00 | 0.00 | 81 | 1018.6 |
| 20260905221030 | 86 | 27 | 1.0 | 2.0 | 0.00 | 0.00 | 0.00 | 81 | 1018.5 |
| 20260905220526 | 87 | 35 | 4.0 | 6.0 | 0.00 | 0.00 | 0.00 | 80 | 1018.7 |
| 20260905220021 | 87 | 92 | 2.0 | 2.0 | 0.00 | 0.00 | 0.00 | 80 | 1018.7 |
| 20260905215515 | 87 | 98 | 3.0 | 5.0 | 0.00 | 0.00 | 0.00 | 79 | 1018.6 |
| 20260905215012 | 88 | 58 | 1.0 | 1.0 | 0.00 | 0.00 | 0.00 | 79 | 1018.4 |
| 20260905214508 | 89 | 39 | 1.0 | 2.0 | 0.00 | 0.00 | 0.00 | 78 | 1018.8 |
| 20260905214008 | 89 | 309 | 1.0 | 1.0 | 0.00 | 0.00 | 0.00 | 77 | 1018.8 |
| 20260905213503 | 89 | 72 | 1.0 | 2.0 | 0.00 | 0.00 | 0.00 | 76 | 1018.7 |
| 20260905213004 | 88 | 23 | 5.0 | 6.0 | 0.00 | 0.00 | 0.00 | 76 | 1018.7 |
| 20260905212459 | 89 | 93 | 4.0 | 6.0 | 0.00 | 0.00 | 0.00 | 76 | 1018.8 |
| 20260905211958 | 89 | 35 | 1.0 | 2.0 | 0.00 | 0.00 | 0.00 | 76 | 1018.9 |
| 20260905211454 | 89 | 73 | 1.0 | 1.0 | 0.00 | 0.00 | 0.00 | 77 | 1019.1 |
| 20260905210949 | 89 | 45 | 1.0 | 1.0 | 0.00 | 0.00 | 0.00 | 77 | 1018.8 |
| 20260905210444 | 88 | 256 | 0.0 | 0.0 | 0.00 | 0.00 | 0.00 | 78 | 1018.9 |
| 20260905205944 | 88 | 79 | 0.0 | 0.0 | 0.00 | 0.00 | 0.00 | 78 | 1019.0 |
| 20260905205439 | 90 | 50 | 1.0 | 1.0 | 0.00 | 0.00 | 0.00 | 75 | 1019.0 |
| 20260905204937 | 89 | 287 | 1.0 | 1.0 | 0.00 | 0.00 | 0.00 | 77 | 1018.8 |
| 20260905204433 | 89 | 196 | 0.0 | 1.0 | 0.00 | 0.00 | 0.00 | 76 | 1018.9 |
| 20260905203932 | 90 | 289 | 0.0 | 1.0 | 0.00 | 0.00 | 0.00 | 76 | 1019.0 |
| 20260905203428 | 90 | 21 | 3.0 | 3.0 | 0.00 | 0.00 | 0.00 | 72 | 1018.8 |
| 20260905202923 | 90 | 77 | 1.0 | 2.0 | 0.00 | 0.00 | 0.00 | 75 | 1019.2 |
| 20260905202419 | 89 | 54 | 5.0 | 6.0 | 0.00 | 0.00 | 0.00 | 75 | 1019.2 |
| 20260905201914 | 90 | 88 | 3.0 | 5.0 | 0.00 | 0.00 | 0.00 | 73 | 1019.1 |
| 20260905201409 | 90 | 99 | 1.0 | 1.0 | 0.00 | 0.00 | 0.00 | 75 | 1019.1 |
| 20260905200904 | 89 | 0 | 1.0 | 2.0 | 0.00 | 0.00 | 0.00 | 74 | 1019.0 |
| 20260905200400 | 89 | 202 | 3.0 | 5.0 | 0.00 | 0.00 | 0.00 | 75 | 1018.9 |
| 20260905195857 | 90 | 82 | 3.0 | 5.0 | 0.00 | 0.00 | 0.00 | 76 | 1019.0 |
| 20260905195353 | 89 | 136 | 1.0 | 2.0 | 0.00 | 0.00 | 0.00 | 76 | 1019.1 |
| 20260905194849 | 90 | 79 | 1.0 | 2.0 | 0.00 | 0.00 | 0.00 | 76 | 1019.1 |
| 20260905194348 | 89 | 21 | 1.0 | 2.0 | 0.00 | 0.00 | 0.00 | 78 | 1019.2 |
| 20260905193847 | 88 | 72 | 3.0 | 5.0 | 0.00 | 0.00 | 0.00 | 78 | 1019.1 |
| 20260905193342 | 88 | 27 | 3.0 | 6.0 | 0.00 | 0.00 | 0.00 | 79 | 1019.5 |
| 20260905192838 | 89 | 342 | 1.0 | 1.0 | 0.00 | 0.00 | 0.00 | 79 | 1019.8 |
| 20260905192334 | 88 | 34 | 3.0 | 3.0 | 0.00 | 0.00 | 0.00 | 79 | 1019.9 |
| 20260905191833 | 88 | 40 | 4.0 | 5.0 | 0.00 | 0.00 | 0.00 | 79 | 1019.6 |
| 20260905191332 | 89 | 73 | 1.0 | 1.0 | 0.00 | 0.00 | 0.00 | 78 | 1019.9 |
| 20260905190825 | 90 | 343 | 2.0 | 2.0 | 0.00 | 0.00 | 0.00 | 76 | 1019.8 |
| 20260905190324 | 89 | 23 | 0.0 | 1.0 | 0.00 | 0.00 | 0.00 | 78 | 1019.5 |
| 20260905185823 | 89 | 117 | 0.0 | 0.0 | 0.00 | 0.00 | 0.00 | 79 | 1019.9 |
| 20260905185319 | 89 | 42 | 3.0 | 3.0 | 0.00 | 0.00 | 0.00 | 77 | 1019.8 |
| 20260905184812 | 91 | 318 | 3.0 | 5.0 | 0.00 | 0.00 | 0.00 | 76 | 1019.8 |
| 20260905184311 | 91 | 243 | 0.0 | 0.0 | 0.00 | 0.00 | 0.00 | 75 | 1019.8 |
| 20260905183810 | 90 | 230 | 0.0 | 0.0 | 0.00 | 0.00 | 0.00 | 76 | 1020.2 |
| 20260905183306 | 90 | 35 | 1.0 | 2.0 | 0.00 | 0.00 | 0.00 | 77 | 1020.0 |
| 20260905182800 | 88 | 320 | 2.0 | 2.0 | 0.00 | 0.00 | 0.00 | 78 | 1020.1 |
| 20260905182300 | 89 | 51 | 5.0 | 6.0 | 0.00 | 0.00 | 0.00 | 77 | 1020.0 |
| 20260905181755 | 89 | 287 | 1.0 | 1.0 | 0.00 | 0.00 | 0.00 | 77 | 1019.9 |
| 20260905181255 | 89 | 173 | 1.0 | 1.0 | 0.00 | 0.00 | 0.00 | 79 | 1020.0 |
| 20260905180749 | 89 | 35 | 1.0 | 2.0 | 0.00 | 0.00 | 0.00 | 78 | 1020.2 |
| 20260905180244 | 88 | 343 | 0.0 | 1.0 | 0.00 | 0.00 | 0.00 | 79 | 1020.0 |
| 20260905175744 | 88 | 83 | 1.0 | 1.0 | 0.00 | 0.00 | 0.00 | 80 | 1020.0 |
| 20260905175239 | 88 | 241 | 0.0 | 0.0 | 0.00 | 0.00 | 0.00 | 80 | 1020.0 |
| 20260905174734 | 88 | 307 | 2.0 | 3.0 | 0.00 | 0.00 | 0.00 | 79 | 1019.8 |
| 20260905174230 | 87 | 354 | 2.0 | 2.0 | 0.00 | 0.00 | 0.00 | 80 | 1019.9 |
| 20260905173726 | 88 | 344 | 1.0 | 2.0 | 0.00 | 0.00 | 0.00 | 80 | 1019.6 |
| 20260905173221 | 88 | 91 | 1.0 | 3.0 | 0.00 | 0.00 | 0.00 | 79 | 1019.8 |
| 20260905172721 | 87 | 275 | 0.0 | 1.0 | 0.00 | 0.00 | 0.00 | 80 | 1019.8 |
| 20260905172215 | 86 | 77 | 3.0 | 3.0 | 0.00 | 0.00 | 0.00 | 81 | 1020.0 |
| 20260905171711 | 87 | 78 | 0.0 | 0.0 | 0.00 | 0.00 | 0.00 | 80 | 1020.1 |
| 20260905171207 | 86 | 264 | 0.0 | 1.0 | 0.00 | 0.00 | 0.00 | 81 | 1020.0 |
| 20260905170704 | 86 | 205 | 0.0 | 0.0 | 0.00 | 0.00 | 0.00 | 81 | 1020.0 |
| 20260905170203 | 87 | 316 | 0.0 | 1.0 | 0.00 | 0.00 | 0.00 | 81 | 1020.1 |
| 20260905165658 | 87 | 281 | 1.0 | 1.0 | 0.00 | 0.00 | 0.00 | 80 | 1020.3 |
| 20260905165153 | 87 | 64 | 0.0 | 1.0 | 0.00 | 0.00 | 0.00 | 79 | 1020.4 |
| 20260905164648 | 86 | 16 | 3.0 | 5.0 | 0.00 | 0.00 | 0.00 | 79 | 1020.4 |
| 20260905164148 | 86 | 356 | 0.0 | 1.0 | 0.00 | 0.00 | 0.00 | 79 | 1020.2 |
| 20260905163643 | 86 | 291 | 0.0 | 0.0 | 0.00 | 0.00 | 0.00 | 79 | 1020.3 |
| 20260905163140 | 86 | 350 | 0.0 | 0.0 | 0.00 | 0.00 | 0.00 | 79 | 1020.4 |
| 20260905162636 | 86 | 286 | 1.0 | 1.0 | 0.00 | 0.00 | 0.00 | 79 | 1020.4 |
| 20260905162135 | 86 | 118 | 0.0 | 1.0 | 0.00 | 0.00 | 0.00 | 79 | 1020.4 |
| 20260905161634 | 86 | 319 | 2.0 | 3.0 | 0.00 | 0.00 | 0.00 | 79 | 1020.4 |
| 20260905161132 | 85 | 5 | 3.0 | 3.0 | 0.00 | 0.00 | 0.00 | 79 | 1020.4 |
| 20260905160627 | 85 | 76 | 3.0 | 5.0 | 0.00 | 0.00 | 0.00 | 80 | 1020.1 |
| 20260905160120 | 85 | 28 | 1.0 | 2.0 | 0.00 | 0.00 | 0.00 | 81 | 1020.1 |
| 20260905155615 | 85 | 317 | 3.0 | 3.0 | 0.00 | 0.00 | 0.00 | 81 | 1020.2 |
| 20260905155114 | 85 | 96 | 0.0 | 1.0 | 0.00 | 0.00 | 0.00 | 82 | 1020.3 |
| 20260905154609 | 86 | 60 | 2.0 | 3.0 | 0.00 | 0.00 | 0.00 | 80 | 1020.1 |
| 20260905154104 | 86 | 118 | 0.0 | 0.0 | 0.00 | 0.00 | 0.00 | 82 | 1020.1 |
| 20260905153600 | 85 | 267 | 0.0 | 0.0 | 0.00 | 0.00 | 0.00 | 82 | 1020.1 |